Погода в Кингстон-апон-Халл

Великобритания     53°45′42″N   0°17′56″E
темп.,
°C
ветер,
м/с
пор.,
м/с
влажн.,
%
обл.,
%
осадки,
мм/ч
давл.,
гПа
погр.,
м
17 мая, пн
пн1701:00+7св359792 0.1 99996
04:00+7с2397100 0.0 100063
07:00+8ссз249393 0.0 1002185
10:00+12ссз237250 0.1 1004778
13:00+12с2279100 1.6 1005686
16:00+11з128388 1.5 1006376
19:00+11ю1290100 3.0 1006115
22:00+9сз3795100 1.8 1008316
18 мая, вт
вт1801:00+8з2497100 2.1 1009138
04:00+6з359588 0.2 1009111
07:00+7з3691100 0.2 1010170
10:00+12з557186 0.0 1011760
13:00+12зюз337182 0.4 1012733
16:00+13з457648 2.5 1012953
19:00+12сз25814 3.8 1012336
22:00+8з348971 0.1 101457
19 мая, ср
ср1901:00+6з338912 0.1 101452
04:00+4з339125 0.0 101456
07:00+7зсз248640 0.0 1015129
10:00+13зсз346232 0.0 1016986
13:00+14с345760 0.4 10161626
16:00+11св448789 1.8 1018307
19:00+9всв239517 3.5 1019141
22:00+7юз33951 0.1 102039
20 мая, чт
чт2001:00+6з37951 0.1 1021135
04:00+5зюз35945 0.0 102185
07:00+7юз36913 0.0 1021163
10:00+13юз466894 0.0 1020786
13:00+15ююз6758100 0.1 10191749
16:00+15ююз6965100 0.1 10171618
19:00+10ю61393100 0.9 1015813
22:00+9ю71595100 0.9 1013817
21 мая, пт
пт2101:00+10ююз71494100 0.9 1009849
04:00+10ююз61292100 0.1 1006919
07:00+10юз6118215 0.2 1005924
10:00+12юз71173100 0.3 10031405
13:00+13ююз812727 0.8 10001691
16:00+14ююз81472100 0.8 9981696
19:00+11ююз8148696 1.9 9961122
22:00+9ююз8148480 0.1 9951024